SAS4733 ENGM-LDSP

Flight info

Callsign SAS4733
Flight time 2h 43m
Altitude 31000
Route VIPPA DCT ALS/N0450F330 M852 ALASA DCT ZUCKA DCT SIMBA DCT VILAK/N0450F370 DCT NUPSO
Aircraft A20N/M-SDE2E3FGHIRWXY/LB1

Departure

Time 2026-05-08 03:54
Airport Oslo-Gardermoen International Airport (ENGM)

Arrival

Time 2026-05-08 06:37
Airport Split Saint Jerome Airport (LDSP)
Time Latitude Longitude Altitude Speed Heading
2026-05-08 03:12 60.19534 11.09656 687 ft 0 kts 196°
2026-05-08 03:31 60.19556 11.09669 687 ft 2 kts 196°
2026-05-08 03:32 60.19570 11.09677 687 ft 2 kts 196°
2026-05-08 03:32 60.19585 11.09685 687 ft 2 kts 196°
2026-05-08 03:32 60.19599 11.09694 687 ft 2 kts 196°
2026-05-08 03:32 60.19613 11.09702 687 ft 1 kts 196°
2026-05-08 03:33 60.19624 11.09709 687 ft 2 kts 208°
2026-05-08 03:33 60.19637 11.09723 687 ft 2 kts 203°
2026-05-08 03:33 60.19651 11.09733 687 ft 2 kts 193°
2026-05-08 03:33 60.19665 11.09741 687 ft 2 kts 197°
2026-05-08 03:34 60.19679 11.09749 687 ft 1 kts 195°
2026-05-08 03:40 60.19674 11.09746 687 ft 0 kts 198°
2026-05-08 03:41 60.19670 11.09743 687 ft 2 kts 200°
2026-05-08 03:41 60.19647 11.09714 687 ft 5 kts 225°
2026-05-08 03:41 60.19644 11.09633 687 ft 7 kts 301°
2026-05-08 03:42 60.19663 11.09535 687 ft 7 kts 286°
2026-05-08 03:42 60.19663 11.09532 687 ft 0 kts 287°
2026-05-08 03:42 60.19663 11.09531 687 ft 0 kts 287°
2026-05-08 03:42 60.19669 11.09491 687 ft 4 kts 287°
2026-05-08 03:43 60.19680 11.09415 687 ft 6 kts 286°
2026-05-08 03:43 60.19695 11.09316 688 ft 8 kts 286°
2026-05-08 03:43 60.19712 11.09201 688 ft 9 kts 285°
2026-05-08 03:43 60.19729 11.09069 688 ft 10 kts 286°
2026-05-08 03:44 60.19751 11.08920 688 ft 12 kts 286°
2026-05-08 03:44 60.19775 11.08746 688 ft 12 kts 276°
2026-05-08 03:44 60.19717 11.08638 688 ft 13 kts 195°
2026-05-08 03:44 60.19626 11.08585 688 ft 13 kts 197°
2026-05-08 03:45 60.19532 11.08531 688 ft 14 kts 195°
2026-05-08 03:45 60.19431 11.08474 688 ft 15 kts 196°
2026-05-08 03:45 60.19320 11.08409 688 ft 17 kts 197°
2026-05-08 03:45 60.19201 11.08335 688 ft 18 kts 196°
2026-05-08 03:46 60.19074 11.08262 688 ft 19 kts 193°
2026-05-08 03:46 60.18939 11.08190 688 ft 20 kts 196°
2026-05-08 03:46 60.18803 11.08109 688 ft 20 kts 194°
2026-05-08 03:46 60.18676 11.08042 688 ft 14 kts 196°
2026-05-08 03:47 60.18574 11.07981 688 ft 16 kts 195°
2026-05-08 03:47 60.18455 11.07912 688 ft 18 kts 195°
2026-05-08 03:47 60.18351 11.07818 688 ft 14 kts 248°
2026-05-08 03:47 60.18391 11.07642 688 ft 14 kts 325°
2026-05-08 03:48 60.18416 11.07607 688 ft 0 kts 323°
2026-05-08 03:48 60.18420 11.07600 688 ft 1 kts 323°
2026-05-08 03:49 60.18433 11.07581 688 ft 3 kts 324°
2026-05-08 03:49 60.18462 11.07538 688 ft 6 kts 324°
2026-05-08 03:49 60.18508 11.07471 688 ft 8 kts 324°
2026-05-08 03:49 60.18555 11.07415 688 ft 6 kts 346°
2026-05-08 03:50 60.18599 11.07431 688 ft 6 kts 21°
2026-05-08 03:50 60.18613 11.07440 688 ft 0 kts 15°
2026-05-08 03:53 60.18629 11.07449 688 ft 0 kts 15°
2026-05-08 03:53 60.18643 11.07457 688 ft 9 kts 15°
2026-05-08 03:53 60.18949 11.07633 688 ft 80 kts 15°
2026-05-08 03:53 60.19685 11.08057 688 ft 138 kts 15°
2026-05-08 03:54 60.20739 11.08678 859 ft 168 kts 16°
2026-05-08 03:54 60.21855 11.09327 1449 ft 170 kts 15°
2026-05-08 03:54 60.23003 11.09947 2059 ft 174 kts 15°
2026-05-08 03:54 60.24179 11.10582 2610 ft 181 kts 16°
2026-05-08 03:55 60.25450 11.11265 2947 ft 198 kts 14°
2026-05-08 03:55 60.26867 11.11401 3298 ft 215 kts 353°
2026-05-08 03:55 60.28397 11.10920 3679 ft 231 kts 349°
2026-05-08 03:55 60.30000 11.09954 3996 ft 252 kts 326°
2026-05-08 03:56 60.31156 11.07410 4686 ft 249 kts 291°
2026-05-08 03:56 60.31471 11.04080 5405 ft 246 kts 260°
2026-05-08 03:56 60.30971 11.00729 5893 ft 257 kts 245°
2026-05-08 03:56 60.30570 10.97159 6524 ft 273 kts 270°
2026-05-08 03:57 60.30869 10.93394 7347 ft 276 kts 279°
2026-05-08 03:57 60.31303 10.89647 8197 ft 278 kts 281°
2026-05-08 03:57 60.31759 10.85886 9056 ft 279 kts 279°
2026-05-08 03:57 60.31811 10.82050 9808 ft 277 kts 254°
2026-05-08 03:58 60.30995 10.78620 10586 ft 276 kts 230°
2026-05-08 03:58 60.29512 10.76099 11055 ft 289 kts 212°
2026-05-08 03:58 60.27745 10.73957 11427 ft 307 kts 212°
2026-05-08 03:58 60.25880 10.71678 11766 ft 324 kts 212°
2026-05-08 03:59 60.23913 10.69246 12046 ft 341 kts 213°
2026-05-08 03:59 60.21865 10.66696 12418 ft 353 kts 213°
2026-05-08 03:59 60.19775 10.64090 13073 ft 357 kts 213°
2026-05-08 03:59 60.17621 10.61630 13743 ft 360 kts 207°
2026-05-08 04:00 60.15289 10.59783 14390 ft 365 kts 199°
2026-05-08 04:00 60.12819 10.58598 15037 ft 369 kts 193°
2026-05-08 04:00 60.10287 10.57692 15630 ft 373 kts 192°
2026-05-08 04:00 60.07724 10.56814 16201 ft 377 kts 192°
2026-05-08 04:01 60.05135 10.55929 16771 ft 381 kts 192°
2026-05-08 04:01 60.02527 10.55035 17327 ft 384 kts 192°
2026-05-08 04:01 59.99890 10.54123 17857 ft 388 kts 192°
2026-05-08 04:01 59.97233 10.53201 18374 ft 391 kts 192°
2026-05-08 04:02 59.94549 10.52272 18880 ft 395 kts 192°
2026-05-08 04:02 59.91848 10.51336 19404 ft 398 kts 192°
2026-05-08 04:02 59.89120 10.50392 19926 ft 401 kts 192°
2026-05-08 04:02 59.86369 10.49441 20449 ft 403 kts 192°
2026-05-08 04:03 59.83595 10.48483 20952 ft 406 kts 192°
2026-05-08 04:03 59.78022 10.46564 21928 ft 411 kts 192°
2026-05-08 04:03 59.75215 10.45602 22404 ft 413 kts 192°
2026-05-08 04:04 59.72392 10.44633 22857 ft 415 kts 192°
2026-05-08 04:04 59.69554 10.43660 23289 ft 418 kts 192°
2026-05-08 04:04 59.66699 10.42683 23720 ft 420 kts 192°
2026-05-08 04:04 59.63828 10.41705 24130 ft 422 kts 192°
2026-05-08 04:05 59.60941 10.40722 24535 ft 425 kts 192°
2026-05-08 04:05 59.58038 10.39739 24940 ft 427 kts 192°
2026-05-08 04:05 59.55124 10.38756 25348 ft 428 kts 192°
2026-05-08 04:05 59.52215 10.37776 25883 ft 426 kts 192°
2026-05-08 04:06 59.49320 10.36801 26419 ft 424 kts 192°
2026-05-08 04:06 59.46435 10.35832 26922 ft 423 kts 192°
2026-05-08 04:06 59.43560 10.34866 27410 ft 421 kts 191°
2026-05-08 04:06 59.40691 10.33903 27893 ft 420 kts 191°
2026-05-08 04:07 59.37833 10.32941 28351 ft 419 kts 191°
2026-05-08 04:07 59.35004 10.31992 28805 ft 418 kts 191°
2026-05-08 04:07 59.32136 10.31030 29253 ft 417 kts 191°
2026-05-08 04:07 59.29295 10.30080 29676 ft 417 kts 191°
2026-05-08 04:08 59.26454 10.29130 30045 ft 417 kts 191°
2026-05-08 04:08 59.23604 10.28179 30361 ft 419 kts 191°
2026-05-08 04:08 59.20745 10.27229 30671 ft 420 kts 191°
2026-05-08 04:08 59.17862 10.26326 30983 ft 422 kts 189°
2026-05-08 04:09 59.14956 10.25701 31193 ft 425 kts 186°
2026-05-08 04:09 59.12001 10.25315 31199 ft 425 kts 186°
2026-05-08 04:09 59.06115 10.24508 31203 ft 426 kts 186°
2026-05-08 04:10 59.00218 10.23718 31200 ft 426 kts 186°
2026-05-08 04:10 58.94329 10.22930 31201 ft 426 kts 185°
2026-05-08 04:11 58.88412 10.22554 31201 ft 426 kts 183°
2026-05-08 04:11 58.82497 10.22160 31203 ft 426 kts 183°
2026-05-08 04:12 58.76590 10.21772 31204 ft 426 kts 183°
2026-05-08 04:12 58.70689 10.21388 31203 ft 426 kts 183°
2026-05-08 04:13 58.64785 10.21011 31202 ft 426 kts 183°
2026-05-08 04:13 58.58874 10.20633 31207 ft 426 kts 183°
2026-05-08 04:14 58.52970 10.20259 31211 ft 426 kts 183°
2026-05-08 04:14 58.47069 10.19883 31214 ft 426 kts 183°
2026-05-08 04:15 58.41163 10.19510 31210 ft 426 kts 182°
2026-05-08 04:15 58.35262 10.19137 31208 ft 426 kts 182°
2026-05-08 04:16 58.29372 10.18767 31207 ft 426 kts 182°
2026-05-08 04:16 58.23472 10.18402 31210 ft 426 kts 182°
2026-05-08 04:17 58.17571 10.18036 31208 ft 427 kts 182°
2026-05-08 04:17 58.11656 10.17670 31209 ft 427 kts 182°
2026-05-08 04:18 58.05749 10.17302 31214 ft 427 kts 182°
2026-05-08 04:18 57.99851 10.16940 31219 ft 427 kts 182°
2026-05-08 04:19 57.93935 10.16575 31221 ft 427 kts 182°
2026-05-08 04:19 57.88043 10.16212 31224 ft 427 kts 182°
2026-05-08 04:20 57.82132 10.15851 31224 ft 427 kts 182°
2026-05-08 04:20 57.76222 10.15491 31224 ft 427 kts 182°
2026-05-08 04:21 57.70307 10.15133 31226 ft 427 kts 181°
2026-05-08 04:21 57.64395 10.14777 31208 ft 427 kts 181°
2026-05-08 04:22 57.58481 10.14420 31191 ft 427 kts 181°
2026-05-08 04:22 57.52566 10.14064 31184 ft 427 kts 181°
2026-05-08 04:23 57.46657 10.13709 31183 ft 427 kts 181°
2026-05-08 04:23 57.40744 10.13355 31183 ft 427 kts 181°
2026-05-08 04:24 57.34842 10.13003 31182 ft 428 kts 181°
2026-05-08 04:24 57.28920 10.12652 31183 ft 428 kts 181°
2026-05-08 04:25 57.22996 10.12304 31181 ft 429 kts 181°
2026-05-08 04:25 57.17067 10.11955 31185 ft 429 kts 181°
2026-05-08 04:26 57.11138 10.11608 31190 ft 429 kts 181°
2026-05-08 04:26 57.05203 10.11258 31189 ft 429 kts 181°
2026-05-08 04:27 56.99263 10.10909 31190 ft 429 kts 181°
2026-05-08 04:27 56.93348 10.10565 31191 ft 429 kts 181°
2026-05-08 04:28 56.87398 10.10221 31199 ft 430 kts 181°
2026-05-08 04:28 56.81466 10.09879 31201 ft 430 kts 181°
2026-05-08 04:29 56.75515 10.09539 31203 ft 430 kts 181°
2026-05-08 04:29 56.69576 10.09196 31201 ft 430 kts 181°
2026-05-08 04:30 56.63621 10.08853 31203 ft 430 kts 180°
2026-05-08 04:30 56.57678 10.08515 31197 ft 429 kts 180°
2026-05-08 04:31 56.51740 10.08178 31202 ft 430 kts 180°
2026-05-08 04:31 56.45799 10.07842 31198 ft 430 kts 180°
2026-05-08 04:32 56.39855 10.07506 31202 ft 430 kts 180°
2026-05-08 04:32 56.33904 10.07169 31200 ft 430 kts 180°
2026-05-08 04:33 56.27950 10.06835 31199 ft 431 kts 180°
2026-05-08 04:33 56.21993 10.06501 31197 ft 431 kts 180°
2026-05-08 04:34 56.16035 10.06168 31199 ft 431 kts 180°
2026-05-08 04:34 56.10076 10.05835 31201 ft 431 kts 180°
2026-05-08 04:35 56.04106 10.05503 31196 ft 432 kts 180°
2026-05-08 04:35 55.98131 10.05173 31200 ft 432 kts 180°
2026-05-08 04:36 55.92154 10.04846 31199 ft 432 kts 180°
2026-05-08 04:36 55.86177 10.04516 31202 ft 432 kts 180°
2026-05-08 04:37 55.80212 10.04188 31204 ft 432 kts 180°
2026-05-08 04:37 55.74242 10.03861 31202 ft 432 kts 180°
2026-05-08 04:38 55.68257 10.03534 31205 ft 432 kts 180°
2026-05-08 04:38 55.62289 10.03210 31203 ft 432 kts 180°
2026-05-08 04:39 55.56312 10.02888 31200 ft 432 kts 180°
2026-05-08 04:39 55.50332 10.02563 31207 ft 432 kts 180°
2026-05-08 04:40 55.44362 10.02240 31205 ft 431 kts 180°
2026-05-08 04:40 55.38402 10.01920 31204 ft 431 kts 180°
2026-05-08 04:41 55.32439 10.01601 31204 ft 432 kts 180°
2026-05-08 04:41 55.26472 10.01281 31199 ft 432 kts 180°
2026-05-08 04:42 55.20497 10.00962 31201 ft 433 kts 180°
2026-05-08 04:42 55.14511 10.00641 31204 ft 433 kts 179°
2026-05-08 04:43 55.08522 10.00323 31203 ft 433 kts 179°
2026-05-08 04:43 55.02530 10.00001 31207 ft 433 kts 179°
2026-05-08 04:44 54.96549 9.99685 31209 ft 432 kts 179°
2026-05-08 04:44 54.90583 9.99107 31207 ft 432 kts 184°
2026-05-08 04:45 54.84623 9.97806 31208 ft 431 kts 183°
2026-05-08 04:45 54.78619 9.97554 31337 ft 438 kts 175°
2026-05-08 04:46 54.75585 9.98016 31449 ft 442 kts 171°
2026-05-08 04:46 54.72552 9.98874 31559 ft 446 kts 168°
2026-05-08 04:46 54.69504 9.99847 31668 ft 449 kts 168°
2026-05-08 04:46 54.66442 10.00830 31859 ft 450 kts 168°
2026-05-08 04:47 54.63379 10.01815 32130 ft 449 kts 168°
2026-05-08 04:47 54.60325 10.02794 32394 ft 448 kts 169°
2026-05-08 04:47 54.57274 10.03767 32630 ft 448 kts 169°
2026-05-08 04:47 54.54225 10.04734 32847 ft 448 kts 169°
2026-05-08 04:48 54.51177 10.05701 33057 ft 447 kts 169°
2026-05-08 04:48 54.48129 10.06669 33196 ft 448 kts 169°
2026-05-08 04:48 54.42033 10.08589 33202 ft 447 kts 169°
2026-05-08 04:49 54.35936 10.10510 33201 ft 448 kts 170°
2026-05-08 04:49 54.29833 10.12423 33198 ft 448 kts 170°
2026-05-08 04:50 54.23723 10.14334 33194 ft 449 kts 170°
2026-05-08 04:50 54.17603 10.16240 33188 ft 450 kts 170°
2026-05-08 04:51 54.11480 10.18143 33185 ft 450 kts 170°
2026-05-08 04:51 54.05350 10.20041 33187 ft 450 kts 170°
2026-05-08 04:52 53.99204 10.21939 33186 ft 451 kts 170°
2026-05-08 04:52 53.93073 10.23829 33182 ft 451 kts 170°
2026-05-08 04:53 53.86931 10.25720 33179 ft 451 kts 170°
2026-05-08 04:53 53.80797 10.27600 33179 ft 451 kts 170°
2026-05-08 04:54 53.74657 10.29474 33175 ft 451 kts 170°
2026-05-08 04:54 53.68507 10.31346 33170 ft 451 kts 170°
2026-05-08 04:55 53.62360 10.33213 33171 ft 451 kts 170°
2026-05-08 04:55 53.56221 10.35073 33170 ft 451 kts 170°
2026-05-08 04:56 53.50082 10.36927 33168 ft 451 kts 171°
2026-05-08 04:56 53.43939 10.38775 33167 ft 451 kts 171°
2026-05-08 04:57 53.37794 10.40619 33164 ft 451 kts 171°
2026-05-08 04:57 53.31643 10.42459 33163 ft 452 kts 171°
2026-05-08 04:58 53.25496 10.44292 33162 ft 451 kts 171°
2026-05-08 04:58 53.19349 10.46120 33160 ft 451 kts 171°
2026-05-08 04:59 53.13196 10.47945 33159 ft 452 kts 171°
2026-05-08 04:59 53.07038 10.49766 33160 ft 452 kts 171°
2026-05-08 05:00 53.00879 10.51584 33159 ft 452 kts 171°
2026-05-08 05:00 52.94722 10.53394 33162 ft 452 kts 171°
2026-05-08 05:01 52.88573 10.55196 33159 ft 452 kts 171°
2026-05-08 05:01 52.82415 10.56996 33161 ft 452 kts 171°
2026-05-08 05:02 52.76263 10.58789 33160 ft 452 kts 171°
2026-05-08 05:02 52.70096 10.60582 33158 ft 452 kts 171°
2026-05-08 05:03 52.63928 10.62370 33160 ft 452 kts 171°
2026-05-08 05:03 52.57759 10.64154 33159 ft 452 kts 171°
2026-05-08 05:04 52.51615 10.65926 33158 ft 452 kts 172°
2026-05-08 05:04 52.45436 10.67701 33160 ft 452 kts 172°
2026-05-08 05:05 52.39266 10.69468 33158 ft 452 kts 172°
2026-05-08 05:05 52.33097 10.71229 33160 ft 452 kts 172°
2026-05-08 05:06 52.26928 10.72987 33154 ft 452 kts 172°
2026-05-08 05:06 52.20758 10.74740 33146 ft 452 kts 172°
2026-05-08 05:07 52.14587 10.76488 33144 ft 452 kts 172°
2026-05-08 05:07 52.08419 10.78231 33141 ft 452 kts 172°
2026-05-08 05:08 52.02256 10.79966 33140 ft 452 kts 172°
2026-05-08 05:08 51.96092 10.81696 33141 ft 452 kts 172°
2026-05-08 05:09 51.89961 10.83413 33128 ft 452 kts 172°
2026-05-08 05:09 51.83759 10.85142 33122 ft 452 kts 172°
2026-05-08 05:10 51.74517 10.87711 33115 ft 452 kts 172°
2026-05-08 05:11 51.68386 10.89799 33110 ft 453 kts 167°
2026-05-08 05:11 51.62419 10.92958 33105 ft 454 kts 160°
2026-05-08 05:12 51.56608 10.96824 33103 ft 454 kts 159°
2026-05-08 05:12 51.50796 11.00677 33107 ft 454 kts 159°
2026-05-08 05:13 51.44978 11.04516 33105 ft 454 kts 160°
2026-05-08 05:13 51.39157 11.08342 33102 ft 454 kts 159°
2026-05-08 05:14 51.33336 11.12159 33101 ft 454 kts 160°
2026-05-08 05:14 51.27514 11.15964 33104 ft 454 kts 160°
2026-05-08 05:15 51.21696 11.19759 33100 ft 454 kts 160°
2026-05-08 05:15 51.15873 11.23545 33098 ft 454 kts 160°
2026-05-08 05:16 51.10049 11.27320 33100 ft 454 kts 160°
2026-05-08 05:16 51.04220 11.31087 33096 ft 455 kts 160°
2026-05-08 05:17 50.98391 11.34847 33101 ft 455 kts 160°
2026-05-08 05:17 50.92558 11.38597 33099 ft 455 kts 160°
2026-05-08 05:18 50.86731 11.42333 33096 ft 455 kts 160°
2026-05-08 05:18 50.80899 11.46063 33088 ft 454 kts 160°
2026-05-08 05:19 50.75067 11.49784 33096 ft 454 kts 160°
2026-05-08 05:19 50.69242 11.53489 33096 ft 455 kts 160°
2026-05-08 05:20 50.63401 11.57196 33088 ft 455 kts 160°
2026-05-08 05:20 50.57559 11.60892 33087 ft 455 kts 160°
2026-05-08 05:21 50.51720 11.64576 33077 ft 455 kts 160°
2026-05-08 05:21 50.45884 11.68249 33082 ft 455 kts 161°
2026-05-08 05:22 50.40077 11.71894 33087 ft 455 kts 161°
2026-05-08 05:22 50.34228 11.75555 33093 ft 455 kts 161°
2026-05-08 05:23 50.28399 11.79196 33094 ft 454 kts 161°
2026-05-08 05:23 50.22552 11.82836 33097 ft 454 kts 161°
2026-05-08 05:24 50.16706 11.86467 33091 ft 454 kts 161°
2026-05-08 05:24 50.10857 11.90089 33084 ft 454 kts 161°
2026-05-08 05:25 50.05004 11.93705 33078 ft 454 kts 161°
2026-05-08 05:25 49.99147 11.97314 33070 ft 454 kts 161°
2026-05-08 05:26 49.93288 12.00915 33074 ft 455 kts 161°
2026-05-08 05:26 49.87425 12.04509 33068 ft 455 kts 161°
2026-05-08 05:27 49.81574 12.08088 33073 ft 455 kts 161°
2026-05-08 05:27 49.75718 12.11658 33080 ft 454 kts 161°
2026-05-08 05:28 49.69864 12.15218 33078 ft 454 kts 161°
2026-05-08 05:28 49.64013 12.18768 33079 ft 454 kts 161°
2026-05-08 05:29 49.58149 12.22315 33072 ft 455 kts 161°
2026-05-08 05:29 49.52285 12.25853 33077 ft 454 kts 161°
2026-05-08 05:30 49.46422 12.29382 33075 ft 454 kts 162°
2026-05-08 05:30 49.40561 12.32901 33075 ft 454 kts 162°
2026-05-08 05:31 49.34702 12.36409 33077 ft 454 kts 162°
2026-05-08 05:31 49.28833 12.39916 33079 ft 454 kts 162°
2026-05-08 05:32 49.22963 12.43412 33083 ft 454 kts 162°
2026-05-08 05:32 49.17095 12.46898 33083 ft 454 kts 162°
2026-05-08 05:33 49.11227 12.50377 33078 ft 454 kts 162°
2026-05-08 05:33 49.05362 12.53845 33079 ft 454 kts 162°
2026-05-08 05:34 48.99492 12.57307 33077 ft 454 kts 162°
2026-05-08 05:34 48.93626 12.60755 33083 ft 454 kts 162°
2026-05-08 05:35 48.87864 12.64136 33081 ft 454 kts 162°
2026-05-08 05:35 48.81953 12.67597 33085 ft 454 kts 163°
2026-05-08 05:36 48.76060 12.71036 33089 ft 453 kts 163°
2026-05-08 05:36 48.70219 12.74436 33085 ft 453 kts 163°
2026-05-08 05:37 48.64353 12.77844 33087 ft 453 kts 163°
2026-05-08 05:37 48.58489 12.81241 33086 ft 453 kts 163°
2026-05-08 05:38 48.52625 12.84630 33085 ft 453 kts 163°
2026-05-08 05:38 48.46763 12.88010 33085 ft 453 kts 163°
2026-05-08 05:39 48.40903 12.91380 33084 ft 453 kts 163°
2026-05-08 05:39 48.35043 12.94739 33084 ft 452 kts 164°
2026-05-08 05:40 48.29183 12.98089 33086 ft 452 kts 163°
2026-05-08 05:40 48.23334 13.01426 33087 ft 452 kts 163°
2026-05-08 05:41 48.17513 13.04898 33083 ft 452 kts 162°
2026-05-08 05:41 48.11711 13.08422 33085 ft 452 kts 162°
2026-05-08 05:42 48.05893 13.11933 33082 ft 452 kts 163°
2026-05-08 05:42 48.00076 13.15424 33079 ft 452 kts 163°
2026-05-08 05:43 47.94263 13.18906 33080 ft 452 kts 163°
2026-05-08 05:43 47.88547 13.22317 33083 ft 452 kts 163°
2026-05-08 05:44 47.82657 13.25825 33080 ft 452 kts 163°
2026-05-08 05:44 47.78240 13.28451 33079 ft 452 kts 163°
2026-05-08 05:45 47.72401 13.31914 33083 ft 451 kts 163°
2026-05-08 05:45 47.66579 13.35352 33086 ft 451 kts 163°
2026-05-08 05:46 47.60765 13.38781 33088 ft 451 kts 163°
2026-05-08 05:46 47.54965 13.42194 33085 ft 451 kts 163°
2026-05-08 05:47 47.49141 13.45616 33080 ft 451 kts 163°
2026-05-08 05:47 47.43333 13.49021 33078 ft 451 kts 164°
2026-05-08 05:48 47.37522 13.52418 33082 ft 451 kts 164°
2026-05-08 05:48 47.31715 13.55804 33081 ft 451 kts 164°
2026-05-08 05:49 47.25905 13.59182 33078 ft 451 kts 164°
2026-05-08 05:49 47.20088 13.62558 33076 ft 451 kts 165°
2026-05-08 05:50 47.14283 13.65917 33063 ft 451 kts 165°
2026-05-08 05:50 47.08482 13.69267 33055 ft 451 kts 165°
2026-05-08 05:51 47.02680 13.72610 33055 ft 450 kts 165°
2026-05-08 05:51 46.96814 13.75974 33179 ft 458 kts 165°
2026-05-08 05:52 46.90854 13.79388 33370 ft 465 kts 165°
2026-05-08 05:52 46.87967 13.81040 33496 ft 467 kts 165°
2026-05-08 05:52 46.84972 13.82755 33731 ft 467 kts 165°
2026-05-08 05:52 46.81942 13.84489 34006 ft 465 kts 165°
2026-05-08 05:53 46.78941 13.86203 34246 ft 465 kts 166°
2026-05-08 05:53 46.75960 13.87900 34476 ft 464 kts 166°
2026-05-08 05:53 46.72971 13.89599 34700 ft 463 kts 165°
2026-05-08 05:53 46.70005 13.91427 34841 ft 466 kts 162°
2026-05-08 05:54 46.67085 13.93509 34988 ft 469 kts 159°
2026-05-08 05:54 46.64228 13.95776 35171 ft 469 kts 158°
2026-05-08 05:54 46.61372 13.98054 35356 ft 467 kts 158°
2026-05-08 05:54 46.58546 14.00302 35516 ft 466 kts 158°
2026-05-08 05:55 46.55702 14.02558 35653 ft 466 kts 158°
2026-05-08 05:55 46.52856 14.04812 35789 ft 466 kts 158°
2026-05-08 05:55 46.50017 14.07056 35905 ft 466 kts 157°
2026-05-08 05:55 46.47182 14.09294 36045 ft 465 kts 157°
2026-05-08 05:56 46.44352 14.11528 36172 ft 465 kts 157°
2026-05-08 05:56 46.41525 14.13753 36291 ft 464 kts 157°
2026-05-08 05:56 46.38681 14.15991 36408 ft 464 kts 157°
2026-05-08 05:56 46.35848 14.18218 36529 ft 464 kts 157°
2026-05-08 05:57 46.33029 14.20432 36660 ft 463 kts 157°
2026-05-08 05:57 46.30207 14.22644 36783 ft 463 kts 156°
2026-05-08 05:57 46.27372 14.24865 36898 ft 463 kts 156°
2026-05-08 05:57 46.24543 14.27079 37028 ft 463 kts 156°
2026-05-08 05:58 46.21718 14.29285 37058 ft 464 kts 156°
2026-05-08 05:58 46.16061 14.33702 37075 ft 463 kts 156°
2026-05-08 05:59 46.10406 14.38103 37084 ft 462 kts 156°
2026-05-08 05:59 46.04755 14.42488 37076 ft 462 kts 156°
2026-05-08 06:00 45.99110 14.46859 37097 ft 462 kts 156°
2026-05-08 06:00 45.93453 14.51229 37088 ft 462 kts 156°
2026-05-08 06:01 45.87977 14.55450 37090 ft 462 kts 156°
2026-05-08 06:01 45.82301 14.59818 37080 ft 462 kts 156°
2026-05-08 06:02 45.76667 14.64142 37074 ft 462 kts 157°
2026-05-08 06:02 45.71250 14.68287 37082 ft 461 kts 158°
2026-05-08 06:03 45.65593 14.72608 37081 ft 461 kts 158°
2026-05-08 06:03 45.59946 14.76912 37078 ft 460 kts 158°
2026-05-08 06:04 45.54319 14.81190 37082 ft 460 kts 158°
2026-05-08 06:04 45.48680 14.85467 37084 ft 460 kts 158°
2026-05-08 06:05 45.43103 14.89695 37084 ft 443 kts 158°
2026-05-08 06:05 45.40441 14.91717 37076 ft 427 kts 158°
2026-05-08 06:05 45.37874 14.93663 37071 ft 412 kts 158°
2026-05-08 06:06 45.32913 14.97396 37079 ft 402 kts 159°
2026-05-08 06:06 45.28009 15.01076 37078 ft 397 kts 159°
2026-05-08 06:07 45.23141 15.04720 37072 ft 396 kts 159°
2026-05-08 06:07 45.18275 15.08360 37063 ft 397 kts 159°
2026-05-08 06:08 45.13401 15.12003 37055 ft 397 kts 159°
2026-05-08 06:08 45.08521 15.15647 37049 ft 397 kts 158°
2026-05-08 06:09 45.03636 15.19289 37059 ft 397 kts 159°
2026-05-08 06:09 45.01188 15.21108 36806 ft 399 kts 159°
2026-05-08 06:09 44.98743 15.22924 36505 ft 399 kts 159°
2026-05-08 06:09 44.96290 15.24746 36170 ft 399 kts 159°
2026-05-08 06:10 44.93829 15.26569 35668 ft 402 kts 159°
2026-05-08 06:10 44.91349 15.28405 35116 ft 405 kts 159°
2026-05-08 06:10 44.88885 15.30232 34721 ft 402 kts 159°
2026-05-08 06:10 44.86409 15.32062 34274 ft 399 kts 159°
2026-05-08 06:11 44.83957 15.33876 33823 ft 396 kts 159°
2026-05-08 06:11 44.81530 15.35665 33367 ft 393 kts 158°
2026-05-08 06:11 44.79124 15.37438 32917 ft 390 kts 159°
2026-05-08 06:11 44.76735 15.39200 32475 ft 387 kts 158°
2026-05-08 06:12 44.74363 15.40943 32014 ft 385 kts 158°
2026-05-08 06:12 44.72003 15.42676 31508 ft 383 kts 158°
2026-05-08 06:12 44.69657 15.44400 31067 ft 380 kts 158°
2026-05-08 06:12 44.67329 15.46110 30628 ft 377 kts 158°
2026-05-08 06:13 44.65021 15.47802 30195 ft 374 kts 158°
2026-05-08 06:13 44.62729 15.49483 29769 ft 371 kts 158°
2026-05-08 06:13 44.60452 15.51149 29345 ft 368 kts 158°
2026-05-08 06:13 44.58199 15.52796 28938 ft 365 kts 158°
2026-05-08 06:14 44.55962 15.54432 28505 ft 363 kts 158°
2026-05-08 06:14 44.53729 15.56059 28007 ft 362 kts 157°
2026-05-08 06:14 44.51496 15.57684 27470 ft 363 kts 157°
2026-05-08 06:14 44.49258 15.59312 26914 ft 364 kts 157°
2026-05-08 06:15 44.47017 15.60943 26386 ft 364 kts 156°
2026-05-08 06:15 44.44774 15.62575 25855 ft 365 kts 156°
2026-05-08 06:15 44.42529 15.64207 25330 ft 365 kts 156°
2026-05-08 06:15 44.40282 15.65840 24793 ft 365 kts 157°
2026-05-08 06:16 44.38178 15.67366 24298 ft 365 kts 156°
2026-05-08 06:16 44.35921 15.69001 23584 ft 370 kts 156°
2026-05-08 06:16 44.33623 15.70662 22882 ft 373 kts 156°
2026-05-08 06:16 44.31356 15.72305 22305 ft 363 kts 156°
2026-05-08 06:17 44.27024 15.75441 21170 ft 341 kts 155°
2026-05-08 06:17 44.24941 15.76943 20489 ft 337 kts 155°
2026-05-08 06:17 44.22878 15.78427 19899 ft 332 kts 155°
2026-05-08 06:18 44.20849 15.79887 19172 ft 329 kts 154°
2026-05-08 06:18 44.18830 15.81339 18434 ft 329 kts 154°
2026-05-08 06:18 44.16810 15.82793 17993 ft 326 kts 154°
2026-05-08 06:18 44.14808 15.84235 17595 ft 324 kts 154°
2026-05-08 06:19 44.12825 15.85662 17181 ft 319 kts 153°
2026-05-08 06:19 44.10873 15.87065 16645 ft 316 kts 153°
2026-05-08 06:19 44.08927 15.88460 16105 ft 315 kts 153°
2026-05-08 06:19 44.06986 15.89851 15632 ft 314 kts 153°
2026-05-08 06:20 44.05049 15.91239 15206 ft 312 kts 153°
2026-05-08 06:20 44.03130 15.92611 14834 ft 309 kts 153°
2026-05-08 06:20 44.01229 15.93972 14468 ft 307 kts 153°
2026-05-08 06:20 43.99352 15.95312 13983 ft 303 kts 153°
2026-05-08 06:21 43.97481 15.96648 13491 ft 304 kts 153°
2026-05-08 06:21 43.95617 15.97978 13108 ft 299 kts 153°
2026-05-08 06:21 43.93775 15.99293 12644 ft 297 kts 153°
2026-05-08 06:21 43.91948 16.00595 12183 ft 295 kts 153°
2026-05-08 06:22 43.90136 16.01885 11799 ft 292 kts 153°
2026-05-08 06:22 43.88302 16.03075 11464 ft 291 kts 161°
2026-05-08 06:22 43.86347 16.03697 11182 ft 288 kts 174°
2026-05-08 06:22 43.84354 16.03693 11072 ft 288 kts 186°
2026-05-08 06:23 43.82369 16.03237 11084 ft 289 kts 189°
2026-05-08 06:23 43.80393 16.02699 10903 ft 292 kts 190°
2026-05-08 06:23 43.78398 16.02155 10409 ft 294 kts 190°
2026-05-08 06:23 43.76384 16.01613 9913 ft 296 kts 189°
2026-05-08 06:24 43.74346 16.01073 9411 ft 298 kts 189°
2026-05-08 06:24 43.72328 16.00541 8812 ft 293 kts 189°
2026-05-08 06:24 43.70356 16.00024 8194 ft 287 kts 189°
2026-05-08 06:24 43.68424 15.99519 7575 ft 281 kts 188°
2026-05-08 06:25 43.66528 15.99025 6954 ft 275 kts 188°
2026-05-08 06:25 43.64669 15.98540 6332 ft 270 kts 188°
2026-05-08 06:25 43.62838 15.98065 5730 ft 269 kts 188°
2026-05-08 06:25 43.60999 15.97588 5235 ft 271 kts 188°
2026-05-08 06:26 43.59146 15.97107 4768 ft 272 kts 188°
2026-05-08 06:26 43.57285 15.96623 4322 ft 273 kts 188°
2026-05-08 06:26 43.55430 15.96141 4008 ft 269 kts 188°
2026-05-08 06:26 43.53617 15.95668 3981 ft 262 kts 188°
2026-05-08 06:27 43.51821 15.95201 3984 ft 263 kts 187°
2026-05-08 06:27 43.50015 15.94714 3978 ft 264 kts 192°
2026-05-08 06:27 43.48330 15.93674 3905 ft 270 kts 212°
2026-05-08 06:27 43.46918 15.91954 3473 ft 276 kts 223°
2026-05-08 06:28 43.45585 15.90026 3071 ft 276 kts 225°
2026-05-08 06:28 43.44296 15.88131 2975 ft 267 kts 224°
2026-05-08 06:28 43.43012 15.86274 2976 ft 269 kts 223°
2026-05-08 06:28 43.41713 15.84423 2973 ft 269 kts 223°
2026-05-08 06:29 43.40394 15.82595 2967 ft 268 kts 218°
2026-05-08 06:29 43.38789 15.81439 2949 ft 260 kts 185°
2026-05-08 06:29 43.37054 15.81758 2959 ft 251 kts 152°
2026-05-08 06:29 43.35688 15.83190 2962 ft 248 kts 128°
2026-05-08 06:30 43.34736 15.85143 2962 ft 247 kts 121°
2026-05-08 06:30 43.33815 15.87136 2961 ft 247 kts 122°
2026-05-08 06:30 43.32871 15.89106 2961 ft 247 kts 122°
2026-05-08 06:30 43.32235 15.91267 2946 ft 247 kts 97°
2026-05-08 06:31 43.32426 15.93600 2950 ft 251 kts 71°
2026-05-08 06:31 43.33392 15.95602 2956 ft 256 kts 48°
2026-05-08 06:31 43.34655 15.97330 2899 ft 257 kts 47°
2026-05-08 06:31 43.35912 15.99051 2655 ft 254 kts 48°
2026-05-08 06:32 43.37149 16.00759 2634 ft 252 kts 49°
2026-05-08 06:32 43.38386 16.02486 2706 ft 254 kts 49°
2026-05-08 06:32 43.39600 16.04242 2733 ft 253 kts 52°
2026-05-08 06:32 43.40723 16.06103 2748 ft 252 kts 53°
2026-05-08 06:33 43.41799 16.07976 2753 ft 243 kts 54°
2026-05-08 06:33 43.42799 16.09770 2757 ft 228 kts 55°
2026-05-08 06:33 43.43724 16.11446 2752 ft 212 kts 55°
2026-05-08 06:33 43.44588 16.13015 2732 ft 201 kts 56°
2026-05-08 06:34 43.45417 16.14519 2613 ft 192 kts 55°
2026-05-08 06:34 43.46212 16.15958 2345 ft 188 kts 54°
2026-05-08 06:34 43.46995 16.17375 2072 ft 183 kts 54°
2026-05-08 06:34 43.47755 16.18745 1812 ft 174 kts 54°
2026-05-08 06:35 43.48459 16.20013 1602 ft 158 kts 54°
2026-05-08 06:35 43.49094 16.21156 1373 ft 143 kts 53°
2026-05-08 06:35 43.49683 16.22206 1120 ft 135 kts 56°
2026-05-08 06:35 43.50236 16.23259 987 ft 136 kts 55°
2026-05-08 06:36 43.50813 16.24291 851 ft 136 kts 53°
2026-05-08 06:36 43.51395 16.25313 690 ft 135 kts 53°
2026-05-08 06:36 43.51968 16.26340 489 ft 135 kts 54°
2026-05-08 06:36 43.52534 16.27367 341 ft 134 kts 52°
2026-05-08 06:37 43.53108 16.28385 152 ft 134 kts 53°
2026-05-08 06:37 43.53652 16.29366 88 ft 113 kts 52°
2026-05-08 06:37 43.54027 16.30034 88 ft 55 kts 52°
2026-05-08 06:37 43.54211 16.30365 88 ft 40 kts 51°
2026-05-08 06:38 43.54371 16.30650 88 ft 35 kts 52°
2026-05-08 06:38 43.54516 16.30910 88 ft 32 kts 52°
2026-05-08 06:38 43.54570 16.31049 88 ft 10 kts 30°
2026-05-08 06:38 43.54572 16.31016 88 ft 5 kts 227°
2026-05-08 06:39 43.54548 16.30970 88 ft 6 kts 236°
2026-05-08 06:39 43.54519 16.30912 88 ft 8 kts 233°
2026-05-08 06:39 43.54483 16.30845 88 ft 9 kts 232°
2026-05-08 06:39 43.54434 16.30761 88 ft 14 kts 231°
2026-05-08 06:40 43.54364 16.30636 88 ft 17 kts 232°
2026-05-08 06:40 43.54289 16.30502 88 ft 17 kts 232°
2026-05-08 06:40 43.54210 16.30361 88 ft 19 kts 232°
2026-05-08 06:40 43.54126 16.30213 88 ft 19 kts 232°
2026-05-08 06:41 43.54029 16.30105 88 ft 17 kts 199°
2026-05-08 06:41 43.53921 16.30060 88 ft 13 kts 204°
2026-05-08 06:41 43.53860 16.29975 88 ft 9 kts 233°
2026-05-08 06:41 43.53816 16.29895 88 ft 11 kts 233°
2026-05-08 06:42 43.53806 16.29876 88 ft 0 kts 233°
2026-05-08 06:43 43.53803 16.29871 88 ft 1 kts 230°
2026-05-08 06:43 43.53792 16.29866 88 ft 2 kts 187°
2026-05-08 06:43 43.53772 16.29872 88 ft 0 kts 149°
2026-05-08 06:43 43.53769 16.29881 88 ft 1 kts 111°
2026-05-08 06:44 43.53762 16.29905 88 ft 3 kts 112°
2026-05-08 06:44 43.53758 16.29918 88 ft 1 kts 112°
2026-05-08 06:44 43.53758 16.29920 88 ft 0 kts 112°